User: anonymous   Login
Location: Caltech
(34.1382°N, 118.1253°W)
Time: 20:45:28
(UTC-08:00)
Language:

Uribyol 2 - Orbit

View from above orbital plane
View from above orbital plane
View from above satellite
View from above satellite

Ground track
Ground track

The orbit data is extracted from the following two-line orbital elements,

1 22828U 93061F   14325.10205575  .00000309  00000-0  13594-3 0  7637
2 22828 098.6686 269.9231 0010519 155.7419 204.4261 14.30388562 71677
Epoch (UTC): 21 November 2014 02:26:57
Eccentricity: 0.0010519
inclination: 98.6686°
perigee height: 783 km
apogee height: 798 km
right ascension of ascending node: 269.9231°
argument of perigee: 155.7419°
revolutions per day: 14.30388562
mean anomaly at epoch: 204.4261°
orbit number at epoch: 7167

The dashed part of the orbit path shows where the satellite is in the earth's shadow,  

DLR